(165260) = 2000 SH220

Discovered at Socorro on 2000-09-26 by LINEAR.

Orbit

Orbit type: Main Belt

Note: WebGL enabled browser required.

epoch2024-03-31.0
epoch JD2460400.5
perihelion date2025-06-18.73197
perihelion JD2460845.23197
argument of perihelion (°)259.20875
ascending node (°)107.14930
inclination (°)7.53891
eccentricity0.1472928
perihelion distance (AU)1.9852275
Tisserand w.r.t. Jupiter3.5
ΔV w.r.t. Earth (km/sec)9.0
semimajor axis (AU)2.3281469
mean anomaly (°)236.60811
mean daily motion (°/day)0.27745230
aphelion distance (AU)2.671
period (years)3.55
P-vector [x]0.98573562
P-vector [y]0.15057144
P-vector [z]-0.07519000
Q-vector [x]-0.11228793
Q-vector [y]0.92117228
Q-vector [z]0.37260308
absolute magnitude16.51
phase slope0.15
uncertainty0
referenceMPEC 2024-C145
observations used558
oppositions17
arc length (days)9507
first opposition used1998
last opposition used2024
residual rms (arc-secs)0.76
perturbers coarse indicatorM-v
perturbers precise indicator003Ek
first observation date used1998-02-01.0
last observation date used2024-02-12.0
computer nameMPCLINUX
JD of orbit computation2456966.726183
perihelion JD uncertainty (days)4.9809E-05
argument of perihelion uncertainty (°)4.5065E-05
ascending node uncertainty (°)4.2299E-05
inclination uncertainty (°)4.0959E-06
eccentricity uncertainty 6.8256E-08
perihelion distance uncertainty (AU)1.6529E-07
Minimum Orbit Intersection Distances (in AU)
for orbit epoch: 2460200.5, reference: E2024-CE5
Mercury1.62068
Venus1.26159
Earth0.99852
Mars0.60741
Jupiter2.79829
Saturn6.67582
Uranus15.8106
Neptune27.7919

Observations

569 total observations over interval: 1998 02 01.68186 – 2024 02 12.650774
These data are available for download (format description).

Date (UT) J2000 RA J2000 Dec Magn Location Ref
1998 02 01.68186 08 23 55.52 +23 34 50.8 19.4   327 – Peking Observatory, Xinglong Station MPS 90413
1998 02 01.69161 08 23 54.91 +23 34 54.7   327 – Peking Observatory, Xinglong Station MPS 90413
1998 02 01.70118 08 23 54.28 +23 34 57.6   327 – Peking Observatory, Xinglong Station MPS 90413
2000 09 26.34138 03 01 59.18 +03 25 29.0 18.9   704 – Lincoln Laboratory ETS, New Mexico MPS 20153
2000 09 26.35602 03 01 59.05 +03 25 22.9 19.4   704 – Lincoln Laboratory ETS, New Mexico MPS 20153
2000 09 26.38552 03 01 58.60 +03 25 15.8 19.5   704 – Lincoln Laboratory ETS, New Mexico MPS 20153
2000 09 26.40006 03 01 58.41 +03 25 11.7 19.5   704 – Lincoln Laboratory ETS, New Mexico MPS 20153
2000 10 01.33261 03 00 47.56 +03 01 43.4 19.1   704 – Lincoln Laboratory ETS, New Mexico MPS 20153
2000 10 01.34912 03 00 47.24 +03 01 38.5 19.0   704 – Lincoln Laboratory ETS, New Mexico MPS 20153
2000 10 01.36434 03 00 46.83 +03 01 34.5 19.3   704 – Lincoln Laboratory ETS, New Mexico MPS 20153
2000 10 01.37907 03 00 46.51 +03 01 30.0 19.4   704 – Lincoln Laboratory ETS, New Mexico MPS 20153
2000 10 01.39410 03 00 46.21 +03 01 25.5 18.8   704 – Lincoln Laboratory ETS, New Mexico MPS 20153
2000 10 29.30358 02 40 24.96 +01 01 46.0 18.7   704 – Lincoln Laboratory ETS, New Mexico MPS 90413
2000 10 29.33291 02 40 23.19 +01 01 41.4 18.9   704 – Lincoln Laboratory ETS, New Mexico MPS 90413
2000 10 29.34862 02 40 22.15 +01 01 39.5 18.9   704 – Lincoln Laboratory ETS, New Mexico MPS 90413
2000 10 29.36347 02 40 21.34 +01 01 36.6 18.8   704 – Lincoln Laboratory ETS, New Mexico MPS 90413
2000 11 19.22415 02 21 13.69 +00 55 42.4 18.9 R 699 – Lowell Observatory-LONEOS MPS 90413
2000 11 19.24755 02 21 12.70 +00 55 44.8   699 – Lowell Observatory-LONEOS MPS 90413
2000 11 19.27095 02 21 11.50 +00 55 46.5   699 – Lowell Observatory-LONEOS MPS 90413
2000 11 19.29439 02 21 10.39 +00 55 51.8   699 – Lowell Observatory-LONEOS MPS 90413
2000 11 26.24047 02 16 39.02 +01 17 09.0 18.6   704 – Lincoln Laboratory ETS, New Mexico MPS 90413
2000 11 26.25524 02 16 38.52 +01 17 12.0 19.2   704 – Lincoln Laboratory ETS, New Mexico MPS 90413
2000 11 26.27004 02 16 37.97 +01 17 15.8 19.3   704 – Lincoln Laboratory ETS, New Mexico MPS 90413
2000 11 26.28500 02 16 37.41 +01 17 20.1 19.1   704 – Lincoln Laboratory ETS, New Mexico MPS 90413
2000 11 26.29980 02 16 36.95 +01 17 23.9 19.4   704 – Lincoln Laboratory ETS, New Mexico MPS 90413
2002 03 11.43894 11 49 47.07 +12 55 38.4 20.1   644 – Palomar Mountain/NEAT MPS 90413
2002 03 11.44937 11 49 46.48 +12 55 43.1 21.0   644 – Palomar Mountain/NEAT MPS 90413
2002 03 11.45979 11 49 45.84 +12 55 48.2 20.9   644 – Palomar Mountain/NEAT MPS 90413
2004 12 18.32999 08 01 11.95 +20 06 35.4 19.0 R G96 – Mt. Lemmon Survey MPS 122625
2004 12 18.33983 08 01 11.53 +20 06 38.8 19.3 R G96 – Mt. Lemmon Survey MPS 122625
2004 12 18.34961 08 01 11.09 +20 06 42.0 19.3 R G96 – Mt. Lemmon Survey MPS 122625
2004 12 18.35949 08 01 10.66 +20 06 45.2 18.4 R G96 – Mt. Lemmon Survey MPS 122625
2004 12 19.35007 08 00 27.62 +20 12 15.9 15.7 R G96 – Mt. Lemmon Survey MPS 122625
2004 12 19.36068 08 00 27.12 +20 12 19.4 15.7 R G96 – Mt. Lemmon Survey MPS 122625
2004 12 19.37126 08 00 26.63 +20 12 22.7 17.7 R G96 – Mt. Lemmon Survey MPS 122625
2004 12 19.38186 08 00 26.13 +20 12 26.5 19.2 R G96 – Mt. Lemmon Survey MPS 122625
2005 01 01.40204 07 48 37.61 +21 31 34.5 19.1 R 703 – Catalina Sky Survey MPS 123453
2005 01 01.40846 07 48 37.17 +21 31 36.5 20.0 R 703 – Catalina Sky Survey MPS 123453
2005 01 01.41486 07 48 36.82 +21 31 36.7 19.2 R 703 – Catalina Sky Survey MPS 123453
2005 01 01.42130 07 48 36.39 +21 31 40.0 18.8 R 703 – Catalina Sky Survey MPS 123453
2005 01 11.30109 07 37 43.84 +22 34 15.5 18.8   704 – Lincoln Laboratory ETS, New Mexico MPS 123998
2005 01 11.31443 07 37 42.93 +22 34 20.1 19.0   704 – Lincoln Laboratory ETS, New Mexico MPS 123998
2005 01 11.32755 07 37 42.02 +22 34 24.0 19.1   704 – Lincoln Laboratory ETS, New Mexico MPS 123998
2005 01 11.34079 07 37 41.14 +22 34 30.1 19.4   704 – Lincoln Laboratory ETS, New Mexico MPS 123998
2005 01 15.28610 07 33 13.80 +22 58 27.8 19.8   704 – Lincoln Laboratory ETS, New Mexico MPS 124587
2005 01 15.29923 07 33 12.99 +22 58 32.2 19.9   704 – Lincoln Laboratory ETS, New Mexico MPS 124587
2005 01 15.31236 07 33 12.07 +22 58 36.9 20.0   704 – Lincoln Laboratory ETS, New Mexico MPS 124587
2005 01 15.32629 07 33 11.00 +22 58 42.6 19.5   704 – Lincoln Laboratory ETS, New Mexico MPS 124587
2005 01 15.33964 07 33 10.08 +22 58 47.8 19.3   704 – Lincoln Laboratory ETS, New Mexico MPS 124587
2005 01 17.20356 07 31 05.65 +23 09 42.5 19.5 V 691 – Steward Observatory, Kitt Peak-Spacewatch MPS 124587
2005 01 17.22952 07 31 03.87 +23 09 51.9 19.6 V 691 – Steward Observatory, Kitt Peak-Spacewatch MPS 124587
2005 01 17.25674 07 31 02.01 +23 10 01.3 19.6 V 691 – Steward Observatory, Kitt Peak-Spacewatch MPS 124587
2005 01 17.28307 07 31 00.11 +23 10 09.6 19.6   704 – Lincoln Laboratory ETS, New Mexico MPS 124587
2005 01 17.29833 07 30 59.13 +23 10 15.3 19.7   704 – Lincoln Laboratory ETS, New Mexico MPS 124587
2005 01 17.31232 07 30 58.16 +23 10 20.8 19.8   704 – Lincoln Laboratory ETS, New Mexico MPS 124587
2005 01 17.34089 07 30 56.20 +23 10 31.0 19.3   704 – Lincoln Laboratory ETS, New Mexico MPS 124587
2005 01 18.37996 07 29 47.37 +23 16 28.3 20.1 V 291 – LPL/Spacewatch II MPS 124587
2005 01 18.40511 07 29 45.68 +23 16 36.2 19.8 V 291 – LPL/Spacewatch II MPS 124587
2005 01 18.43130 07 29 43.94 +23 16 45.5 19.9 V 291 – LPL/Spacewatch II MPS 124587
2006 05 26.24448 14 06 08.31 -01 42 40.1 20.5 V 703 – Catalina Sky Survey MPS 172719
2006 05 26.25573 14 06 07.81 -01 42 39.1 20.2 V 703 – Catalina Sky Survey MPS 172719
2006 05 26.26692 14 06 07.34 -01 42 40.4 20.5 V 703 – Catalina Sky Survey MPS 172719
2006 05 26.27811 14 06 06.98 -01 42 40.4 20.4 V 703 – Catalina Sky Survey MPS 172719
2007 08 12.39832 01 28 58.11 -02 09 08.0 19.0 C 704 – Lincoln Laboratory ETS, New Mexico MPS 291364
2007 08 12.42210 01 28 59.14 -02 09 10.3 18.7 C 704 – Lincoln Laboratory ETS, New Mexico MPS 291364
2007 09 12.35017 01 35 55.53 -04 50 01.3 18.9 V 703 – Catalina Sky Survey MPS 214986
2007 09 12.35771 01 35 55.42 -04 50 04.5 18.9 V 703 – Catalina Sky Survey MPS 214986
2007 09 12.36527 01 35 55.24 -04 50 08.2 18.8 V 703 – Catalina Sky Survey MPS 214986
2007 09 12.37281 01 35 55.06 -04 50 11.6 18.9 V 703 – Catalina Sky Survey MPS 214986
2007 09 16.30717 01 34 30.04 -05 19 31.9 18.9   704 – Lincoln Laboratory ETS, New Mexico MPS 215994
2007 09 16.31879 01 34 29.66 -05 19 36.7 18.5   704 – Lincoln Laboratory ETS, New Mexico MPS 215994
2007 09 16.33049 01 34 29.46 -05 19 42.7 18.9   704 – Lincoln Laboratory ETS, New Mexico MPS 215994
2007 09 16.34199 01 34 29.19 -05 19 49.1 18.9   704 – Lincoln Laboratory ETS, New Mexico MPS 215994
2007 09 17.64071 01 33 54.68 -05 29 38.1 18.7 R D29 – Purple Mountain Observatory, XuYi Station MPS 215994
2007 09 17.65293 01 33 54.29 -05 29 43.0 19.0 R D29 – Purple Mountain Observatory, XuYi Station MPS 215994
2007 09 17.66462 01 33 53.95 -05 29 48.8 18.6 R D29 – Purple Mountain Observatory, XuYi Station MPS 215994
2007 09 17.67627 01 33 53.56 -05 29 54.2 19.0 R D29 – Purple Mountain Observatory, XuYi Station MPS 215994
2007 10 09.87666 01 17 43.76 -08 01 46.4 18.8 V A50 – Andrushivka Astronomical Observatory MPS 224509
2007 10 09.89102 01 17 43.00 -08 01 50.2 18.5 V A50 – Andrushivka Astronomical Observatory MPS 224509
2007 10 11.20685 01 16 32.70 -08 08 23.3 18.2 V 703 – Catalina Sky Survey MPS 220185
2007 10 11.21395 01 16 32.30 -08 08 24.0 18.2 V 703 – Catalina Sky Survey MPS 220185
2007 10 11.22103 01 16 31.90 -08 08 27.0 18.4 V 703 – Catalina Sky Survey MPS 220185
2007 10 11.22814 01 16 31.51 -08 08 28.8 18.4 V 703 – Catalina Sky Survey MPS 220185
2007 10 15.28557 01 12 53.74 -08 25 56.2 18.3 r 699 – Lowell Observatory-LONEOS MPS 220185
2007 10 15.30386 01 12 52.75 -08 26 00.5 18.2 r 699 – Lowell Observatory-LONEOS MPS 220185
2007 10 15.32215 01 12 51.70 -08 26 04.9 18.4 r 699 – Lowell Observatory-LONEOS MPS 220185
2007 10 15.34043 01 12 50.65 -08 26 09.0 18.6 r 699 – Lowell Observatory-LONEOS MPS 220185
